Crumpler, NC

7:26 AM EST on February 25, 2017 (GMT -0500)
Ashe County

Weather History for KGEV - February, 2008

Change the Weather History Date:

Wednesday, February 20, 2008

  Actual Average Record
Temperature  
Mean Temperature 42 °F -  
Max Temperature 53 °F 47 °F 66 °F (1986)
Min Temperature 30 °F 26 °F -4 °F (2015)
Degree Days  
Heating Degree Days 24    
Moisture  
Dew Point 20 °F    
Average Humidity 45    
Maximum Humidity 81    
Minimum Humidity 32    
Precipitation  
Precipitation 0.00 in - - ()
Sea Level Pressure  
Sea Level Pressure 29.98 in    
Wind  
Wind Speed 14 mph (West)    
Max Wind Speed 25 mph    
Max Gust Speed 45 mph    
Visibility 10 miles    
Events Rain    
Averages and records for this station are not official NWS values.
T = Trace of Precipitation, MM = Missing Value Source: NWS Daily Summary

Daily Weather History Graph

Daily Weather History Graph

Search for Another Location

Airport or City:

Trip Planner

Search our weather history database for the weather conditions in past years. The results will help you decide how hot, cold, wet, or windy it might be!

Date:

Astronomy

Feb. 20, 2008 Rise Set
Actual Time 7:08 AM EST 6:11 PM EST
Civil Twilight 6:42 AM EST 6:37 PM EST
Nautical Twilight 6:12 AM EST 7:07 PM EST
Astronomical Twilight 5:42 AM EST 7:37 PM EST
Moon 5:56 PM EST (2/20) 6:51 AM EST (2/20)
Length of Visible Light 11h 55m
Length of Day
11h 02m
Full, 100% of the Moon is Illuminated
Feb 20
Full
Feb 20
Full
Feb 28
Last Quarter
Mar 7
New
Mar 14
First Quarter

Hourly Weather History & Observations

Time (EST) Temp. Windchill Dew Point Humidity Pressure Visibility Wind Dir Wind Speed Gust Speed Precip Events Conditions
12:22 AM 33.8 °F 24.8 °F 10.4 °F 38% 29.98 in 10.0 mi West 12.7 mph 29.9 mph N/A   Clear
12:42 AM 33.8 °F 25.8 °F 10.4 °F 38% 29.98 in 10.0 mi West 10.4 mph 25.3 mph N/A   Clear
1:04 AM 30.2 °F 18.5 °F 8.6 °F 40% 29.97 in 10.0 mi West 17.3 mph 32.2 mph N/A   Clear
1:22 AM 30.2 °F 18.9 °F 8.6 °F 40% 29.98 in 10.0 mi West 16.1 mph 28.8 mph N/A   Clear
1:42 AM 30.2 °F 17.8 °F 8.6 °F 40% 29.99 in 10.0 mi WNW 19.6 mph 33.4 mph N/A   Clear
2:02 AM 30.2 °F 17.8 °F 8.6 °F 40% 29.99 in 10.0 mi West 19.6 mph 28.8 mph N/A   Scattered Clouds
2:22 AM 30.2 °F 18.1 °F 8.6 °F 40% 29.99 in 10.0 mi West 18.4 mph 27.6 mph N/A   Scattered Clouds
2:42 AM 30.2 °F 18.9 °F 8.6 °F 40% 30.00 in 10.0 mi West 16.1 mph 27.6 mph N/A   Scattered Clouds
3:02 AM 30.2 °F 18.9 °F 8.6 °F 40% 30.00 in 10.0 mi West 16.1 mph 26.5 mph N/A   Scattered Clouds
3:22 AM 30.2 °F 18.5 °F 8.6 °F 40% 30.00 in 10.0 mi WNW 17.3 mph 24.2 mph N/A   Mostly Cloudy
3:42 AM 30.2 °F 19.3 °F 8.6 °F 40% 29.99 in 10.0 mi West 15.0 mph 20.7 mph N/A   Overcast
4:23 AM 30.2 °F 21.9 °F 8.6 °F 40% 30.00 in 10.0 mi West 9.2 mph - N/A   Mostly Cloudy
4:42 AM 30.2 °F 21.9 °F 8.6 °F 40% 30.00 in 10.0 mi West 9.2 mph 18.4 mph N/A   Overcast
5:02 AM 32.0 °F 24.8 °F 10.4 °F 41% 30.00 in 10.0 mi West 8.1 mph 23.0 mph N/A   Overcast
5:22 AM 33.8 °F 27.7 °F 12.2 °F 41% 30.00 in 10.0 mi West 6.9 mph 10.4 mph N/A   Overcast
5:42 AM 33.8 °F - 12.2 °F 41% 30.00 in 10.0 mi Calm Calm - N/A   Overcast
6:03 AM 33.8 °F 29.6 °F 12.2 °F 41% 30.00 in 10.0 mi South 4.6 mph - N/A   Overcast
6:22 AM 33.8 °F 30.8 °F 14.0 °F 44% 30.00 in 10.0 mi ESE 3.5 mph - N/A   Overcast
6:42 AM 33.8 °F 30.8 °F 14.0 °F 44% 29.99 in 10.0 mi East 3.5 mph - N/A   Overcast
7:02 AM 33.8 °F - 14.0 °F 44% 30.00 in 10.0 mi Calm Calm - N/A   Overcast
7:22 AM 35.6 °F - 15.8 °F 44% 29.99 in 10.0 mi Calm Calm - N/A   Overcast
7:42 AM 35.6 °F - 15.8 °F 44% 30.00 in 10.0 mi Calm Calm - N/A   Overcast
8:02 AM 37.4 °F 33.8 °F 17.6 °F 45% 30.00 in 10.0 mi SSW 4.6 mph - N/A   Overcast
8:22 AM 41.0 °F 35.2 °F 19.4 °F 42% 29.98 in 10.0 mi SW 9.2 mph 26.5 mph N/A   Overcast
8:42 AM 42.8 °F 34.8 °F 21.2 °F 42% 29.98 in 10.0 mi WSW 17.3 mph 34.5 mph N/A   Mostly Cloudy
9:02 AM 42.8 °F 34.3 °F 21.2 °F 42% 29.98 in 10.0 mi West 19.6 mph 40.3 mph N/A   Mostly Cloudy
9:22 AM 44.6 °F 36.6 °F 19.4 °F 37% 29.99 in 10.0 mi WSW 19.6 mph 32.2 mph N/A   Mostly Cloudy
9:42 AM 44.6 °F 37.4 °F 19.4 °F 37% 29.98 in 10.0 mi WSW 16.1 mph 33.4 mph N/A   Mostly Cloudy
10:02 AM 44.6 °F 36.9 °F 21.2 °F 39% 29.97 in 10.0 mi WSW 18.4 mph 32.2 mph N/A   Overcast
10:22 AM 46.4 °F 39.5 °F 19.4 °F 34% 29.97 in 10.0 mi WSW 17.3 mph 27.6 mph N/A   Scattered Clouds
10:42 AM 48.2 °F - 21.2 °F 34% 29.96 in 10.0 mi WSW 15.0 mph 21.9 mph N/A   Scattered Clouds
11:03 AM 50.0 °F - 21.2 °F 32% 29.96 in 10.0 mi WSW 13.8 mph 34.5 mph N/A   Mostly Cloudy
11:22 AM 50.0 °F - 21.2 °F 32% 29.96 in 10.0 mi WSW 15.0 mph 35.7 mph N/A   Overcast
11:42 AM 50.0 °F - 21.2 °F 32% 29.94 in - West 21.9 mph 34.5 mph N/A   Mostly Cloudy
12:02 PM 50.0 °F - 23.0 °F 35% 29.96 in 10.0 mi West 25.3 mph 33.4 mph N/A   Overcast
12:22 PM 50.0 °F - 23.0 °F 35% 29.96 in 10.0 mi West 20.7 mph 31.1 mph N/A   Mostly Cloudy
12:42 PM 50.0 °F - 24.8 °F 37% 29.96 in 10.0 mi West 17.3 mph 39.1 mph N/A   Mostly Cloudy
1:02 PM 50.0 °F - 24.8 °F 37% 29.94 in 10.0 mi West 21.9 mph 40.3 mph N/A   Mostly Cloudy
1:22 PM 50.0 °F - 24.8 °F 37% 29.94 in 10.0 mi West 20.7 mph 36.8 mph N/A   Overcast
1:42 PM 51.8 °F - 24.8 °F 35% 29.93 in 10.0 mi West 21.9 mph 44.9 mph N/A   Mostly Cloudy
2:03 PM 51.8 °F - 24.8 °F 35% 29.93 in 10.0 mi West 17.3 mph 34.5 mph N/A   Mostly Cloudy
2:24 PM 53.6 °F - 26.6 °F 35% 29.93 in 10.0 mi WSW 13.8 mph 31.1 mph N/A   Mostly Cloudy
2:43 PM 51.8 °F - 26.6 °F 38% 29.92 in 10.0 mi West 13.8 mph 38.0 mph N/A   Mostly Cloudy
3:03 PM 50.0 °F - 28.4 °F 43% 29.93 in 10.0 mi WSW 16.1 mph 35.7 mph N/A   Mostly Cloudy
3:22 PM 53.6 °F - 28.4 °F 38% 29.93 in 10.0 mi WSW 16.1 mph 26.5 mph N/A   Mostly Cloudy
3:42 PM 53.6 °F - 28.4 °F 38% 29.92 in 10.0 mi WSW 16.1 mph 29.9 mph N/A   Mostly Cloudy
4:02 PM 50.0 °F - 26.6 °F 40% 29.92 in 10.0 mi West 23.0 mph 34.5 mph N/A   Scattered Clouds
4:22 PM 48.2 °F - 26.6 °F 43% 29.93 in 10.0 mi West 24.2 mph 33.4 mph N/A   Scattered Clouds
4:42 PM 48.2 °F - 26.6 °F 43% 29.94 in 10.0 mi West 15.0 mph 33.4 mph N/A   Scattered Clouds
5:02 PM 46.4 °F 39.5 °F 26.6 °F 46% 29.94 in 10.0 mi West 17.3 mph 29.9 mph N/A   Scattered Clouds
5:22 PM 46.4 °F 40.1 °F 26.6 °F 46% 29.94 in 10.0 mi West 15.0 mph 29.9 mph N/A   Clear
5:42 PM 46.4 °F 38.3 °F 26.6 °F 46% 29.95 in 10.0 mi West 23.0 mph 32.2 mph N/A   Clear
6:02 PM 44.6 °F 38.4 °F 26.6 °F 49% 29.96 in 10.0 mi West 12.7 mph 18.4 mph N/A   Scattered Clouds
6:22 PM 44.6 °F 38.1 °F 26.6 °F 49% 29.97 in 10.0 mi West 13.8 mph 25.3 mph N/A   Mostly Cloudy
6:42 PM 44.6 °F 37.8 °F 28.4 °F 53% 29.98 in 10.0 mi West 15.0 mph 28.8 mph N/A   Overcast
7:02 PM 42.8 °F 34.8 °F 30.2 °F 61% 30.00 in 10.0 mi WNW 17.3 mph 26.5 mph N/A   Overcast
7:22 PM 41.0 °F 39.0 °F 30.2 °F 65% 30.02 in 10.0 mi NNW 3.5 mph 20.7 mph N/A   Overcast
7:42 PM 39.2 °F 34.2 °F 30.2 °F 70% 30.02 in 10.0 mi West 6.9 mph 19.6 mph N/A   Overcast
8:02 PM 39.2 °F 35.0 °F 32.0 °F 75% 30.04 in 10.0 mi West 5.8 mph 16.1 mph N/A   Light Drizzle
8:22 PM 39.2 °F 32.5 °F 32.0 °F 75% 30.04 in 5.0 mi WNW 10.4 mph - N/A   Light Drizzle
8:42 PM 37.4 °F 29.3 °F 30.2 °F 75% 30.04 in 7.0 mi WNW 12.7 mph 23.0 mph N/A   Light Drizzle
9:02 PM 37.4 °F 31.4 °F 32.0 °F 81% 30.05 in 7.0 mi WNW 8.1 mph - N/A Rain Light Rain
9:22 PM 37.4 °F 29.8 °F 32.0 °F 81% 30.06 in 7.0 mi WNW 11.5 mph 19.6 mph N/A   Light Drizzle
9:42 PM 37.4 °F 29.3 °F 32.0 °F 81% 30.07 in 7.0 mi WNW 12.7 mph 24.2 mph N/A   Overcast
10:02 PM 37.4 °F 32.1 °F 32.0 °F 81% 30.08 in 10.0 mi WNW 6.9 mph 17.3 mph N/A   Overcast
10:42 PM 37.4 °F 30.3 °F 30.2 °F 75% 30.09 in 10.0 mi WNW 10.4 mph 19.6 mph N/A   Overcast
11:02 PM 37.4 °F 30.8 °F 30.2 °F 75% 30.09 in 10.0 mi WNW 9.2 mph 17.3 mph N/A   Overcast
11:22 PM 37.4 °F - 30.2 °F 75% 30.09 in 10.0 mi Calm Calm - N/A   Overcast
11:42 PM 35.6 °F 29.2 °F 28.4 °F 75% 30.09 in 10.0 mi WNW 8.1 mph - N/A   Overcast